GFSCGP_925_thetae_021.txt.gz
Theta_e
311 311 312 311 313 312 311 311 311 313 313 315 314 315 314 313 310 309 311 311 309 310 310 309 310 308 307 306 303 301 299 299 298 297 297 296 296 295 294 294 293 293 292 292
313 313 312 311 311 313 313 313 313 313 312 312 312 313 313 311 313 313 312 310 310 310 307 306 307 306 305 304 302 300 299 299 298 297 296 295 295 295 294 293 293 292 291 291
312 312 314 314 314 314 313 312 313 312 312 310 311 312 312 311 312 312 312 312 311 311 306 305 303 304 303 301 300 299 299 299 298 297 296 295 294 294 293 293 292 292 291 290
311 312 312 312 313 313 314 311 312 313 313 314 311 314 311 312 311 311 312 311 311 308 305 304 303 303 302 301 300 299 299 298 297 296 295 294 294 293 293 292 292 291 291 290
312 312 311 312 312 311 314 312 311 313 313 313 314 315 314 311 310 310 310 311 310 307 303 303 303 304 303 301 299 299 299 297 296 296 295 294 293 293 293 292 292 291 291 290
309 310 312 311 310 310 310 312 311 310 309 314 313 314 312 310 311 310 311 310 309 308 304 303 303 304 301 299 299 298 297 296 296 296 295 295 293 292 292 292 291 291 290 289
308 309 309 310 312 309 310 311 313 312 312 315 310 312 314 311 309 309 310 310 309 306 304 301 300 300 299 298 298 297 296 295 296 296 295 294 293 292 292 292 291 290 290 289
310 310 309 308 311 310 309 312 313 311 312 313 308 311 311 310 311 308 308 308 306 305 304 302 302 300 299 298 297 297 296 295 295 295 294 294 293 292 292 292 291 290 290 290
310 311 309 308 309 310 310 312 311 314 298 309 313 310 309 309 308 307 306 305 305 304 303 302 299 299 298 298 297 297 296 296 295 295 294 294 293 292 292 292 291 290 290 290
310 312 309 307 307 307 309 308 312 312 313 311 313 311 312 310 310 309 307 304 303 303 303 302 300 299 298 298 298 297 297 296 295 294 294 293 293 293 292 291 291 290 290 289
309 311 312 306 307 310 307 309 309 310 312 315 314 313 309 308 307 309 307 304 302 303 301 301 301 300 299 298 298 298 297 296 295 295 294 293 293 292 292 291 291 290 290 288
311 312 315 312 307 305 308 310 311 313 313 310 312 313 312 310 306 308 308 305 304 303 302 301 300 298 297 298 297 297 296 295 295 294 293 293 292 291 291 291 290 290 289 287
314 313 317 316 313 306 307 307 308 310 311 314 315 314 312 310 307 306 304 303 303 303 304 302 300 298 299 298 297 296 295 296 295 294 293 291 291 291 290 289 289 288 288 286
313 312 316 319 316 312 312 310 308 310 312 312 312 313 311 311 311 311 311 310 310 306 303 302 302 299 296 297 297 296 296 296 294 293 292 290 289 289 288 288 287 287 286 285
314 315 315 314 314 314 314 315 313 313 313 316 315 313 311 310 310 309 309 309 306 306 305 303 302 300 299 298 297 297 296 295 294 292 290 289 289 288 287 286 286 286 285 284
312 316 316 316 314 314 316 314 313 314 314 314 313 314 312 313 313 313 313 312 308 308 308 307 302 301 298 296 298 296 295 294 293 291 290 289 287 286 284 284 285 284 283 282
313 314 316 317 314 314 316 315 315 314 313 314 315 313 311 311 311 312 312 311 310 309 308 304 302 301 299 297 298 296 296 293 292 291 289 287 285 283 282 282 283 281 281 280
312 313 314 318 316 318 314 311 312 313 312 311 312 312 311 311 311 311 310 310 310 309 306 303 300 300 299 302 300 298 295 292 290 289 287 284 283 281 280 280 280 279 279 278
311 313 315 317 318 315 313 311 311 311 312 310 311 311 311 311 310 310 308 303 305 306 304 302 300 300 301 300 300 295 290 289 288 286 285 283 282 280 279 278 278 277 277 276
311 312 315 317 319 319 313 305 307 310 314 304 303 304 305 305 310 310 303 301 300 299 296 295 295 296 296 295 293 290 287 286 286 285 284 282 281 279 278 278 277 277 277 276
305 310 312 313 315 315 302 302 305 314 308 301 301 302 303 304 303 301 299 298 298 297 295 294 293 290 291 291 290 287 285 285 285 284 283 281 280 279 278 277 276 275 275 275
299 299 303 304 308 314 298 301 303 301 300 299 298 298 298 298 298 297 296 296 295 295 296 294 287 288 291 290 289 285 283 284 284 282 280 278 278 277 277 276 274 275 274 273
295 297 294 294 297 295 297 293 293 297 299 295 294 294 295 295 295 294 294 294 294 295 295 295 289 288 287 287 287 284 283 283 282 280 278 277 276 276 275 275 273 273 272 272
289 290 291 289 291 289 290 292 294 291 291 291 290 289 290 292 292 293 293 294 294 294 294 295 295 291 287 286 284 285 284 284 281 277 275 275 275 274 273 273 272 272 271 272
289 289 287 288 288 288 289 290 288 288 287 286 285 285 287 288 289 289 290 290 290 291 292 293 293 290 289 290 286 285 284 281 278 276 274 273 273 272 272 272 272 272 272 273
289 289 288 288 289 286 287 286 285 281 281 281 282 282 282 282 282 283 283 285 286 287 289 290 289 290 290 289 287 285 281 279 277 275 273 273 272 272 271 271 271 272 272 274

GFSCGP_925_thetae_024.txt.gz
Theta_e
310 310 310 310 311 311 310 309 310 310 310 313 312 313 313 313 310 308 308 310 309 305 309 310 310 309 307 306 304 303 301 300 300 299 298 298 297 297 297 296 295 295 293 292
311 310 309 309 309 310 311 312 312 311 311 310 311 312 312 311 312 312 311 311 310 310 310 309 306 307 305 306 304 302 301 300 300 299 298 296 296 296 297 296 295 294 293 292
311 310 311 310 310 311 310 311 312 312 310 308 308 311 310 309 311 312 311 311 311 310 310 310 302 304 305 304 302 301 301 301 300 298 297 296 296 295 295 295 294 294 293 292
309 310 311 311 312 311 312 310 311 311 311 312 309 313 310 309 309 309 310 310 310 310 310 309 302 301 303 303 302 300 299 299 299 298 297 296 295 295 294 293 293 293 293 292
309 311 310 311 312 310 313 310 310 310 309 310 312 312 311 309 310 310 310 309 309 310 308 307 303 303 303 302 301 299 299 298 298 298 297 296 295 295 294 293 293 293 292 292
309 309 309 309 309 308 309 311 310 307 308 314 311 311 311 310 311 310 310 310 309 309 310 303 302 303 302 302 300 298 298 297 297 296 296 296 295 294 293 293 293 292 292 291
307 307 308 309 311 309 310 310 311 310 311 314 308 310 313 310 309 309 309 308 308 308 308 301 300 300 299 298 298 297 297 296 296 296 296 296 296 295 294 293 292 292 291 291
308 310 307 307 309 309 309 310 312 310 313 313 307 311 311 309 309 308 307 308 307 304 303 302 300 300 298 298 297 297 296 296 295 296 296 295 295 294 293 293 292 292 292 291
308 309 308 307 308 309 308 310 310 310 295 306 310 309 310 307 308 307 307 306 302 302 302 302 300 298 298 297 297 297 296 296 295 295 294 294 294 294 293 292 292 292 292 292
309 310 309 307 306 307 308 307 311 310 311 309 311 310 312 311 310 308 306 305 303 302 301 301 299 297 298 298 297 297 297 296 296 295 295 294 294 294 293 292 292 291 291 291
309 312 311 308 307 310 307 308 308 309 313 316 317 314 313 311 307 306 307 305 303 302 301 301 301 299 299 299 299 297 297 296 296 295 295 294 294 293 293 292 292 292 291 291
311 314 317 315 310 306 306 309 310 313 314 312 314 315 313 313 311 310 310 305 304 302 301 300 300 299 298 298 297 298 297 296 297 296 294 294 293 293 292 292 292 291 291 290
313 317 320 317 314 312 314 312 309 310 311 313 315 315 312 311 310 309 303 304 306 303 301 301 301 300 299 299 297 297 296 297 296 295 294 293 293 292 292 291 291 291 290 290
315 317 319 320 318 313 312 311 311 310 312 313 312 311 310 311 311 311 310 310 309 307 306 308 305 301 300 300 299 297 297 297 296 295 294 293 292 292 291 290 290 290 289 289
313 317 316 316 316 315 315 315 315 314 311 311 311 312 311 310 311 312 310 310 307 307 306 305 303 303 300 298 298 297 297 298 297 295 293 292 292 290 290 289 289 289 288 289
305 311 313 315 314 314 315 314 314 314 314 315 314 315 313 312 312 312 312 312 311 311 310 310 305 303 300 300 300 300 298 298 296 293 292 292 290 289 288 287 287 287 287 286
303 307 308 309 310 312 314 315 314 313 313 314 316 315 312 312 312 311 310 308 304 301 300 301 302 301 299 299 300 298 299 298 295 293 292 291 289 287 286 285 285 284 284 284
302 302 303 306 306 309 309 311 312 312 312 312 311 305 304 304 306 307 300 299 299 299 299 297 296 296 297 298 298 299 298 296 293 292 291 289 288 286 285 283 282 282 282 282
299 301 306 308 310 310 312 308 305 309 308 301 301 299 298 297 300 300 297 296 296 296 297 295 294 294 295 295 293 294 294 292 291 290 290 288 286 284 282 281 281 280 280 279
294 297 304 305 307 309 301 299 296 298 308 294 298 297 296 295 295 296 295 294 294 295 294 293 294 292 293 295 292 290 289 288 287 288 287 285 285 283 281 281 280 279 279 278
285 285 291 295 299 301 294 293 294 306 296 292 295 293 293 293 294 294 294 294 293 293 293 294 294 292 291 293 290 288 286 286 287 287 287 285 283 282 281 280 279 278 278 277
288 289 292 292 291 295 291 290 289 290 293 294 292 292 291 290 290 291 291 291 291 292 292 292 292 293 293 293 290 287 285 287 285 286 285 283 282 281 280 279 277 277 276 276
288 291 291 291 290 290 290 291 290 293 289 289 289 289 287 287 287 288 288 289 289 289 290 290 290 291 291 293 291 284 288 286 284 283 282 281 280 279 278 277 276 276 276 276
285 287 286 287 287 288 288 288 290 288 288 287 285 283 283 284 285 284 284 284 284 284 285 286 287 288 289 291 291 290 290 287 284 281 280 279 279 277 277 276 276 276 275 275
287 288 287 287 288 288 287 288 286 285 284 282 282 282 282 281 280 281 281 281 281 282 282 282 283 284 285 286 288 289 288 288 282 281 280 278 277 276 276 276 275 276 275 276
288 288 288 287 287 287 288 287 283 281 279 279 279 279 279 279 279 278 278 279 278 278 277 276 276 277 279 280 282 285 288 286 283 280 278 276 276 275 275 275 274 276 275 276

GFSCGP_925_thetae_030.txt.gz
Theta_e
308 307 308 309 307 308 306 305 305 306 307 309 308 308 309 308 308 309 309 309 308 309 309 310 310 310 309 308 307 305 304 303 301 301 300 300 300 300 300 298 297 298 297 296
308 308 307 307 306 307 307 308 308 308 308 306 307 308 308 308 309 309 310 310 310 308 308 307 308 308 308 309 307 304 304 302 302 301 300 299 298 298 299 298 297 298 297 296
309 309 307 307 307 308 306 307 308 308 307 306 306 308 307 307 307 308 309 309 309 308 308 308 305 305 305 305 306 305 304 302 301 300 298 298 299 298 297 296 297 297 298 297
307 307 308 308 308 307 309 306 307 308 308 309 307 311 308 310 309 306 307 307 305 304 305 305 304 303 304 306 307 305 304 302 301 299 298 298 298 297 297 296 297 298 298 297
308 308 308 309 309 307 309 308 307 308 308 307 308 308 311 307 308 307 306 305 304 304 303 303 303 304 306 306 307 306 304 302 300 299 299 297 298 298 297 296 295 295 297 297
306 305 306 308 307 306 307 309 307 305 306 311 309 308 310 308 309 308 308 307 305 304 303 301 302 303 303 304 305 303 302 302 300 299 298 298 298 298 296 295 294 294 294 295
306 306 307 306 308 307 308 308 310 310 310 314 307 308 312 309 307 308 309 307 305 303 302 300 300 300 301 303 302 301 300 299 298 298 297 297 297 297 295 295 294 292 292 293
307 316 306 305 307 309 306 307 309 309 311 315 307 312 313 307 307 305 304 304 303 302 300 300 300 298 302 303 301 299 298 298 297 297 296 296 297 297 296 296 295 294 293 294
307 309 306 304 306 306 306 309 307 309 298 304 311 310 311 308 307 306 306 304 304 301 301 300 299 299 301 302 304 299 297 297 297 297 296 296 296 296 296 296 295 295 295 295
309 310 306 306 306 306 306 306 309 306 313 310 312 310 313 312 310 308 305 303 302 302 305 309 303 300 303 304 303 299 298 297 297 297 297 296 295 296 295 295 295 295 295 295
308 312 315 310 307 307 306 308 307 307 312 316 319 316 313 311 309 307 309 308 305 304 304 303 298 300 301 300 299 298 297 297 297 296 296 296 295 295 295 294 294 294 294 294
309 314 317 316 312 307 308 313 312 315 316 311 313 315 312 311 310 309 309 309 307 301 298 297 296 296 296 297 297 297 298 297 297 296 295 295 294 294 294 294 294 294 294 292
313 316 318 315 311 308 312 311 311 312 313 315 316 315 311 311 311 310 307 299 300 299 298 296 295 294 294 294 293 294 295 295 295 296 296 295 294 293 294 293 293 293 293 292
311 313 315 316 314 309 311 309 307 308 309 311 311 315 314 310 305 297 298 296 295 294 294 294 294 293 293 292 292 292 293 293 292 293 294 295 294 294 294 293 293 292 291 291
305 306 307 304 303 303 303 303 303 304 304 306 305 306 305 296 295 297 294 293 293 293 292 292 292 292 292 292 292 291 291 290 290 290 291 292 293 294 293 293 292 291 291 290
298 300 299 298 299 298 298 297 297 299 299 301 306 304 294 293 293 294 294 292 291 291 292 292 291 292 292 291 291 290 290 290 289 290 290 290 292 292 292 292 292 291 290 289
295 295 289 297 296 293 292 293 294 296 296 296 300 295 293 292 291 291 292 292 290 290 291 292 291 292 291 291 290 290 289 289 289 289 289 288 289 290 291 291 290 290 289 288
293 290 286 289 285 288 293 296 294 296 293 292 292 294 292 291 290 290 292 290 289 288 289 290 290 290 290 290 289 289 288 288 288 288 288 287 286 288 289 290 289 288 287 287
293 293 285 288 286 293 296 291 289 288 289 289 290 292 293 290 289 287 288 288 288 288 288 288 288 288 288 288 288 287 287 288 288 288 286 285 285 285 287 287 287 287 286 285
289 292 293 280 288 288 290 290 290 289 287 286 287 288 289 290 286 286 287 288 287 287 287 287 286 286 285 285 285 284 285 286 287 288 286 284 286 285 284 285 285 285 284 284
277 274 280 276 278 282 286 288 287 284 287 283 287 289 289 288 286 286 286 284 284 285 285 284 284 284 283 283 282 283 283 285 285 282 283 284 285 287 284 283 283 283 283 282
284 279 277 272 274 282 285 287 284 286 286 285 287 288 287 287 286 285 284 283 282 282 281 281 282 281 281 281 280 280 281 280 278 279 282 284 283 284 285 282 281 281 281 280
286 285 281 282 283 287 285 287 288 288 287 287 287 287 286 285 284 283 282 282 281 281 280 280 279 279 279 278 278 278 277 276 277 278 277 278 281 282 282 282 281 279 279 279
286 287 286 287 288 287 288 288 287 287 287 287 286 285 283 283 282 281 281 281 280 279 278 278 277 277 276 276 275 275 274 274 274 274 274 275 277 281 281 280 280 279 278 279
288 286 285 287 288 288 287 287 287 287 286 284 283 282 281 280 280 280 279 278 278 277 276 276 276 275 274 273 273 272 271 271 270 271 271 272 274 277 281 280 280 279 280 280
288 289 288 288 288 287 288 288 285 284 283 280 279 278 279 278 278 277 276 275 275 275 274 274 273 272 271 270 270 269 268 267 267 268 269 270 272 274 278 280 280 280 281 280

GFSCGP_925_thetae_033.txt.gz
Theta_e
308 307 309 308 306 307 306 305 305 304 306 306 308 308 307 307 306 308 309 308 308 307 308 308 309 309 309 308 307 307 306 305 304 304 304 303 304 306 306 306 305 303 299 298
307 308 307 306 305 306 307 308 308 307 307 305 306 308 308 308 309 309 309 309 307 306 306 305 306 307 307 307 308 306 305 304 303 303 303 303 302 301 301 301 301 302 300 298
309 309 307 306 307 307 305 307 308 307 305 305 305 308 307 307 306 307 308 307 307 306 307 306 304 305 306 306 307 306 305 304 303 302 301 301 301 299 298 298 299 299 300 298
306 306 308 306 307 306 309 306 306 307 307 309 306 311 311 311 310 309 306 305 304 304 303 303 303 304 304 305 305 306 305 304 302 300 300 300 300 299 299 298 297 297 298 297
309 307 307 308 308 305 308 307 307 306 307 308 307 309 308 307 310 308 308 307 305 304 303 303 302 303 304 306 305 304 304 303 302 300 299 298 299 299 299 298 296 296 296 296
305 304 306 307 306 306 307 308 306 304 306 310 309 309 310 308 309 308 308 307 304 303 301 301 302 302 306 307 305 304 302 301 301 300 299 299 298 299 298 297 297 295 294 294
305 306 306 306 308 306 308 307 311 312 311 316 306 308 312 309 311 307 306 305 303 301 300 301 304 303 303 302 300 299 299 300 300 300 298 298 297 298 298 297 296 294 293 293
308 318 306 305 308 309 307 309 315 314 314 317 306 311 312 307 307 305 303 303 302 305 302 302 301 300 299 298 298 296 298 297 297 298 298 297 297 297 297 297 296 295 295 294
319 313 305 303 305 307 307 309 308 311 297 307 313 313 311 306 306 306 303 304 304 302 299 298 296 296 296 295 295 294 294 296 296 296 296 297 297 297 296 296 295 295 295 294
311 316 310 307 305 305 306 305 310 309 315 318 313 313 313 310 310 306 306 301 300 298 297 296 295 294 293 293 293 293 293 293 293 294 294 295 295 296 296 296 295 295 295 295
313 312 315 312 310 313 313 309 308 308 312 318 318 315 310 309 306 303 303 302 298 296 295 294 294 293 293 292 292 292 292 292 291 291 293 293 294 294 294 295 295 295 295 294
314 315 318 315 310 307 308 311 310 314 315 313 315 316 311 309 304 300 298 296 294 293 293 292 292 292 292 291 291 291 290 291 290 289 291 291 291 293 293 294 294 294 294 294
314 315 317 312 309 309 312 312 311 308 311 315 317 317 306 304 302 296 295 293 292 292 291 291 291 291 292 291 291 290 290 290 289 289 289 290 290 290 290 292 293 293 293 293
310 312 315 314 311 307 310 306 304 304 307 307 307 306 304 301 297 296 294 293 292 290 290 291 291 291 292 291 290 290 289 289 288 288 288 289 289 289 289 290 291 292 292 291
305 309 306 310 304 301 301 302 301 301 301 301 300 299 299 296 293 292 291 291 292 289 289 289 291 290 291 290 290 290 289 288 288 287 288 288 288 288 288 289 289 290 291 291
298 301 299 296 299 300 299 295 295 295 294 294 295 296 294 293 291 290 290 289 292 289 288 288 289 289 289 289 289 289 288 288 287 287 287 287 286 286 287 287 288 289 289 290
295 297 291 299 297 291 290 293 294 293 293 294 297 294 292 291 291 290 289 289 291 288 288 287 287 288 287 287 287 287 287 285 285 286 287 287 286 284 284 286 286 287 288 288
294 290 286 284 281 285 292 291 295 296 293 291 290 290 290 290 291 289 288 289 288 287 287 287 286 286 286 285 285 284 284 283 284 285 286 286 283 283 283 284 285 286 286 287
292 292 282 283 279 287 292 290 289 287 287 288 286 286 288 290 289 288 287 287 286 287 286 286 286 285 285 284 283 283 282 282 282 283 285 281 279 282 283 283 284 285 284 285
290 292 289 276 284 283 288 288 289 287 286 285 285 286 287 289 287 287 285 285 285 285 284 284 284 283 282 282 282 282 281 281 280 282 280 278 278 281 283 282 282 283 284 283
276 277 289 286 289 284 285 288 286 284 285 283 283 286 287 288 288 287 286 285 284 283 283 282 282 281 281 281 280 281 280 279 279 279 277 277 277 278 278 280 281 281 283 282
285 278 274 269 273 282 283 286 285 285 287 284 287 286 286 287 287 287 286 285 283 282 282 281 280 280 279 279 278 278 278 277 277 276 275 275 274 274 275 277 280 281 281 281
286 285 282 282 282 285 284 286 288 288 286 287 287 287 286 286 286 285 284 282 281 281 281 280 279 278 278 277 277 276 276 275 274 273 272 272 272 272 273 274 277 280 281 280
285 286 286 287 288 287 287 288 287 287 287 287 286 285 284 284 283 282 281 280 280 279 278 278 277 276 276 275 275 274 273 272 271 270 270 269 269 270 271 272 275 279 280 280
288 286 285 287 288 288 288 287 287 287 286 284 282 281 281 280 279 279 278 277 277 276 275 274 274 274 273 273 272 271 270 269 268 268 267 267 267 268 269 271 273 276 279 280
288 288 289 288 288 287 287 287 284 283 281 278 278 277 277 277 276 275 274 274 273 272 271 270 269 269 269 268 267 267 266 266 265 265 265 265 265 266 267 268 270 272 276 280

GFSCGP_925_thetae_036.txt.gz
Theta_e
312 313 314 314 314 314 313 312 313 313 313 312 313 314 313 312 312 313 313 314 313 313 313 310 310 310 309 309 308 308 308 308 309 310 311 312 312 311 311 311 308 307 306 304
312 313 314 313 311 310 312 313 314 314 312 310 313 313 312 313 313 313 313 314 313 313 313 311 309 309 309 308 308 307 306 306 307 308 309 309 309 309 309 309 307 306 304 302
315 316 311 311 312 312 313 312 314 314 312 311 311 315 314 314 312 312 313 312 311 310 310 310 310 309 308 307 307 306 305 305 304 305 306 306 307 305 306 306 305 304 303 301
312 311 310 310 311 312 314 313 312 311 312 314 311 317 317 317 316 314 314 311 310 310 309 309 309 307 305 304 304 304 304 303 303 303 304 305 305 304 304 304 303 302 301 301
314 310 310 312 312 311 312 309 310 310 312 312 314 314 318 312 314 313 311 310 310 309 307 307 306 304 303 302 301 301 301 302 302 301 302 303 303 303 304 303 302 300 299 299
310 306 309 311 309 309 308 310 311 310 311 317 318 316 317 315 314 313 311 309 307 306 304 302 301 300 299 298 298 298 298 298 299 300 301 301 302 302 302 302 301 300 299 297
313 313 309 307 310 308 309 311 319 325 321 323 311 314 315 314 312 309 308 306 304 303 301 300 299 298 297 296 296 296 296 296 296 297 298 299 300 300 301 301 300 300 299 297
325 323 309 308 312 318 311 313 325 329 326 326 317 318 317 313 308 307 307 306 304 303 302 300 299 297 296 295 295 294 295 294 293 295 295 296 297 298 298 299 299 299 299 298
322 321 310 306 308 311 312 315 316 321 320 319 318 317 314 311 310 309 307 305 303 301 299 298 298 297 296 295 294 293 293 293 292 292 294 295 295 295 296 297 297 297 297 297
316 320 316 312 306 307 309 310 313 312 321 321 317 317 317 312 312 309 307 303 300 298 296 296 295 295 295 294 294 294 293 293 292 291 292 293 293 293 294 294 295 295 296 296
312 314 317 314 311 314 309 310 312 315 318 321 321 317 313 311 307 305 303 299 297 296 295 294 293 293 293 293 293 293 292 292 291 291 291 292 292 292 292 292 293 294 294 294
316 316 318 317 314 314 315 316 316 318 318 316 317 317 312 306 302 300 298 296 295 294 293 292 292 292 292 292 291 291 291 291 290 289 289 290 291 290 290 291 291 291 292 292
315 317 319 317 312 312 314 312 311 310 310 316 318 316 312 308 304 297 296 294 293 292 290 290 291 291 291 291 290 290 290 289 289 288 288 289 289 289 288 288 289 290 291 290
311 312 316 316 313 312 311 311 308 306 309 311 310 308 305 303 300 294 292 291 293 292 289 289 289 290 290 289 288 288 288 288 287 286 287 287 288 287 286 286 287 288 290 290
307 310 310 310 309 306 305 305 304 304 305 305 303 302 301 298 295 293 292 290 290 292 289 289 289 289 289 288 287 287 287 286 286 285 286 286 287 286 284 284 284 286 288 289
299 305 301 301 301 301 302 300 300 300 298 298 298 297 296 295 294 292 291 289 289 291 289 288 288 288 288 287 287 286 286 285 285 284 285 285 287 284 281 283 284 284 286 287
298 301 299 302 300 296 297 296 297 297 296 296 295 296 294 290 290 290 290 290 289 290 289 288 288 288 287 287 286 286 285 284 284 283 283 283 285 281 280 281 283 284 284 285
296 297 297 297 291 295 296 294 296 297 296 295 295 293 291 290 289 290 290 291 290 290 289 289 288 287 286 286 286 285 284 283 283 283 282 282 283 280 279 280 282 283 283 284
294 294 294 293 295 293 292 293 293 292 292 294 294 291 290 289 289 290 290 290 289 289 289 288 287 286 285 285 284 283 283 282 282 282 281 281 281 278 278 279 280 279 281 282
291 293 294 286 292 292 293 290 290 289 291 289 290 290 289 289 289 289 289 289 289 288 288 287 286 284 284 283 282 281 281 281 281 281 280 279 278 277 277 277 277 277 279 280
290 291 293 294 293 293 292 291 288 290 291 291 291 289 289 290 290 290 289 289 288 288 287 285 285 284 283 282 281 280 280 279 279 279 278 277 276 275 275 274 275 275 276 277
290 290 290 285 289 291 287 289 289 291 291 291 289 290 290 289 289 288 288 288 288 287 285 283 282 282 281 280 279 278 278 278 277 276 275 275 274 273 273 272 272 273 274 276
289 290 290 288 290 289 288 290 290 291 291 290 290 290 289 288 288 287 287 286 284 283 282 281 280 279 278 277 276 276 276 275 274 273 272 271 271 271 270 270 271 272 273 275
290 290 289 290 290 290 290 290 290 290 290 290 290 288 286 285 284 283 282 281 281 279 278 276 275 275 274 273 272 272 271 270 270 269 269 269 269 269 269 269 269 270 272 274
290 289 289 290 290 290 290 290 290 290 290 286 283 282 281 281 280 279 278 277 276 275 273 272 271 271 270 269 268 267 266 265 265 265 265 265 266 266 266 267 267 269 270 272
290 290 290 290 289 289 289 290 288 287 285 280 279 279 278 276 276 275 274 273 271 271 269 268 268 267 266 265 264 264 263 263 263 263 263 263 263 264 264 265 265 266 268 270

GFSCGP_925_thetae_042.txt.gz
Theta_e
313 313 314 314 313 314 314 315 315 315 315 315 316 315 314 314 313 312 312 313 310 309 308 306 305 305 304 304 305 307 308 311 313 314 316 317 318 319 320 320 319 318 318 317
314 314 314 315 315 315 315 315 314 315 316 314 313 313 313 313 313 313 310 310 309 307 305 304 302 302 302 302 302 303 304 305 307 309 311 313 313 314 315 316 317 317 316 315
315 316 315 315 316 316 315 315 316 315 313 313 312 313 313 314 310 310 308 307 305 304 303 301 300 300 299 299 300 300 300 302 303 305 307 307 308 308 309 309 308 312 313 314
317 313 313 314 314 314 315 314 313 313 312 313 311 312 313 313 311 310 307 305 303 302 301 301 300 299 298 298 298 297 298 299 300 302 302 303 304 305 305 305 305 308 308 310
318 312 313 313 313 313 314 311 312 312 312 312 313 312 314 313 311 309 307 305 303 302 301 300 299 299 298 297 297 297 296 296 298 299 299 299 300 300 301 302 303 303 305 305
312 310 310 312 312 312 311 311 311 311 313 317 318 317 318 313 311 308 307 305 304 302 300 300 300 298 298 297 296 296 295 295 295 296 296 297 297 298 298 299 299 300 302 303
314 313 311 311 313 311 310 312 319 321 317 320 317 319 320 311 309 309 308 305 301 299 298 297 297 297 297 297 296 296 295 294 294 294 295 295 295 295 295 295 296 297 298 299
321 321 314 310 314 315 313 316 318 320 319 317 316 317 320 310 308 307 304 301 299 298 296 296 296 296 295 295 294 294 294 293 292 293 293 294 293 293 293 294 294 294 294 295
318 319 312 311 313 313 314 316 314 318 313 320 317 316 312 310 309 306 303 299 298 296 295 295 294 295 294 293 293 293 292 292 291 290 291 291 291 291 291 290 290 289 289 292
316 319 315 309 310 309 310 309 314 317 321 314 314 314 315 313 311 305 302 299 297 295 293 293 293 293 292 292 291 291 290 290 289 288 288 289 289 288 287 286 285 285 285 286
314 315 314 314 314 314 310 311 310 312 316 319 317 314 311 309 307 303 300 298 296 294 292 291 291 291 291 290 290 290 289 289 288 288 286 287 288 288 287 286 284 284 284 284
315 316 315 316 312 310 310 314 314 314 315 316 317 317 307 304 302 301 300 298 295 294 291 290 290 290 289 289 289 289 288 288 288 287 286 286 286 286 286 287 285 283 283 284
314 313 307 308 311 312 313 312 312 313 312 316 316 313 304 302 299 299 297 293 292 294 292 290 289 289 289 289 289 289 288 288 287 287 286 286 285 285 285 285 285 284 283 283
310 312 309 307 308 310 309 309 308 309 312 310 310 309 306 304 303 296 294 293 290 290 290 291 289 289 289 289 289 288 288 288 287 287 286 286 285 285 284 284 284 284 283 282
308 305 306 307 307 307 305 304 304 304 304 304 303 302 302 302 303 295 294 293 291 290 289 289 290 288 289 288 288 288 288 288 287 287 286 286 285 285 284 284 283 283 283 282
302 298 301 296 303 303 303 302 302 301 301 302 302 303 301 297 293 292 290 290 290 289 290 289 288 289 288 289 288 288 288 287 287 287 287 286 285 284 283 283 283 283 282 281
300 298 293 293 299 296 293 295 298 298 298 298 298 298 293 294 292 290 289 290 289 289 289 288 288 288 289 289 288 288 287 287 287 287 286 285 284 283 283 282 282 282 281 280
298 294 293 289 288 290 294 293 294 293 294 293 294 291 289 290 290 289 290 288 288 288 288 287 288 289 289 289 287 286 285 285 284 284 283 283 283 283 282 282 281 281 280 279
296 297 292 289 286 292 294 293 293 292 290 292 291 290 290 290 288 288 289 289 288 288 288 289 289 288 288 287 285 284 283 283 282 282 281 281 281 281 280 280 280 280 279 279
290 293 293 285 287 286 291 290 290 290 288 287 288 289 289 289 286 288 289 289 288 289 289 288 287 286 284 283 282 281 280 279 279 278 278 277 277 277 277 277 277 277 277 277
285 286 291 293 293 290 291 289 290 287 289 289 288 289 290 288 288 288 288 288 288 288 286 285 283 282 281 279 278 277 276 276 275 274 273 272 271 271 270 270 271 271 271 272
289 286 285 285 285 288 290 289 288 289 291 289 290 289 288 288 288 288 287 286 285 284 283 281 279 278 277 276 275 274 273 272 271 270 269 268 267 266 266 266 266 266 267 268
288 289 287 288 287 289 288 289 290 290 288 290 289 288 288 288 287 287 285 283 282 281 279 278 276 275 274 273 271 271 270 269 268 266 265 264 264 264 264 264 264 264 264 265
288 289 287 287 289 289 289 289 288 288 289 288 288 287 288 287 286 283 282 281 279 278 276 274 273 272 271 270 269 268 267 266 265 264 263 263 263 263 263 263 263 264 264 264
289 289 287 288 290 289 289 289 289 289 288 287 287 286 284 283 281 281 278 277 276 274 273 271 270 269 269 268 267 266 265 264 263 263 263 262 262 263 263 263 263 264 264 264
290 290 290 290 289 289 289 289 288 288 288 287 285 281 280 279 278 276 275 274 272 271 269 268 268 267 266 265 265 264 264 263 263 262 262 262 261 262 262 262 263 263 265 266

GFSCGP_925_thetae_045.txt.gz
Theta_e
311 310 311 310 309 310 311 312 313 312 312 312 313 311 310 311 310 308 307 305 304 302 300 299 299 298 299 301 302 302 305 306 312 314 316 318 319 320 320 321 321 321 320 321
311 311 311 311 313 313 313 313 312 312 313 311 310 310 310 308 306 306 305 303 302 300 299 298 298 297 297 296 298 301 302 303 304 306 308 310 311 310 311 312 315 317 317 317
311 313 312 314 314 315 314 314 314 313 311 310 309 309 310 307 306 304 303 301 300 300 299 298 297 297 297 296 295 297 299 300 301 303 305 306 306 305 305 304 305 306 311 313
313 312 313 313 313 313 314 312 312 312 310 311 309 311 310 308 307 304 302 300 300 299 298 298 297 296 296 296 295 295 296 296 297 299 300 299 298 299 299 300 301 303 306 309
316 311 311 312 312 311 312 311 311 311 310 311 311 310 309 309 308 305 303 301 300 299 298 297 297 296 296 296 295 295 295 295 295 295 295 296 296 296 297 297 298 299 300 302
311 309 310 310 310 311 309 310 310 309 309 314 314 312 314 310 309 305 303 302 300 298 296 296 296 296 295 295 294 294 293 293 294 294 294 294 294 294 294 294 294 295 296 297
313 311 310 310 312 309 309 311 316 316 314 317 315 315 316 310 307 306 304 299 297 295 294 294 294 294 294 293 293 293 291 290 290 291 292 292 292 292 291 291 290 290 290 293
318 319 311 310 313 313 309 312 313 312 317 314 313 315 314 306 304 301 298 297 296 294 294 293 294 294 293 293 292 291 290 289 288 288 289 289 288 288 288 286 285 285 285 286
318 318 310 310 311 312 314 314 312 314 307 309 314 313 309 305 302 299 297 296 295 294 293 292 292 293 292 292 291 290 290 289 288 287 287 287 286 286 286 285 285 284 284 284
314 318 314 309 309 308 311 308 313 310 307 308 314 313 313 308 303 300 298 297 295 293 292 291 291 291 291 290 290 290 289 289 288 287 286 286 286 286 285 285 285 285 285 284
313 315 313 312 312 312 309 309 309 310 310 312 312 311 310 309 302 300 299 297 295 292 290 290 290 290 290 290 289 289 288 288 288 287 286 286 285 285 285 285 285 285 284 284
313 310 314 313 311 309 310 310 309 314 309 314 314 313 304 303 302 300 299 297 294 291 290 289 290 289 289 289 289 288 288 287 287 287 286 286 286 285 285 284 284 284 284 284
312 308 303 305 309 309 312 311 311 311 311 309 310 309 302 300 300 299 297 294 293 292 288 288 288 289 289 289 288 288 288 288 287 287 287 286 286 285 285 285 284 284 284 283
310 309 304 305 307 308 308 307 308 310 306 304 307 306 304 301 300 296 293 290 288 288 289 288 287 288 289 289 289 288 288 288 288 287 287 287 287 286 286 285 284 284 283 282
306 303 306 306 306 306 305 305 304 304 303 302 302 300 299 298 298 295 291 289 288 289 289 287 287 288 288 288 288 288 288 288 288 287 287 287 287 286 285 284 284 283 282 282
301 298 298 292 301 302 302 301 301 301 301 300 300 300 299 295 290 288 288 289 289 289 288 289 288 288 288 288 288 288 288 287 287 287 286 286 285 284 283 283 282 282 282 281
298 296 288 290 297 293 292 295 298 298 297 298 298 298 291 294 290 288 288 289 288 287 288 287 286 287 288 288 288 288 287 286 285 284 284 283 283 282 282 281 281 281 281 280
297 291 285 284 282 288 293 292 294 295 295 292 291 288 290 290 288 288 288 288 288 288 287 286 287 287 287 287 286 285 284 283 282 281 281 280 280 280 279 279 279 278 278 278
296 297 287 289 279 288 293 292 291 290 289 286 288 287 289 289 287 287 288 288 288 287 287 287 287 285 284 283 282 281 279 278 278 277 277 277 276 275 274 274 274 273 273 273
290 297 297 276 287 287 289 289 289 288 288 284 283 285 288 288 286 285 286 287 287 288 287 285 283 282 281 279 278 276 276 275 275 274 273 272 271 270 270 269 269 268 268 268
283 282 296 294 287 286 288 288 288 288 289 284 286 289 289 287 286 286 287 286 287 285 283 282 281 279 277 276 274 273 273 272 271 270 269 268 267 266 266 265 265 265 265 265
287 285 282 282 290 290 287 288 289 288 288 287 289 288 287 287 287 287 286 286 283 282 281 279 278 276 274 273 272 271 270 269 268 267 266 265 264 264 264 263 263 263 263 263
288 287 285 287 287 288 287 288 289 289 287 289 288 288 287 287 286 286 285 283 282 279 278 276 274 273 272 271 269 268 268 267 266 265 264 263 263 263 263 263 262 263 263 263
287 287 287 286 288 289 289 288 288 288 288 288 287 287 286 286 286 285 282 281 278 277 275 273 272 270 270 269 268 267 266 265 264 263 263 263 263 262 262 262 262 262 263 263
288 287 287 286 288 288 288 287 288 287 287 286 285 286 286 285 281 281 278 276 276 274 272 270 269 268 268 267 266 266 265 264 263 263 262 262 262 262 261 261 262 262 263 264
288 289 289 288 289 288 288 288 287 287 287 286 286 281 280 281 279 277 275 274 273 271 269 268 267 266 266 265 265 266 265 264 263 262 262 262 262 261 261 261 262 262 264 265

GFSCGP_925_thetae_048.txt.gz
Theta_e
310 308 309 308 308 309 310 310 310 311 311 311 311 310 307 305 304 304 302 300 300 299 298 297 296 296 297 300 302 303 306 307 312 315 315 315 311 311 314 315 317 318 320 321
310 310 309 309 309 309 310 311 311 310 310 311 310 309 306 304 303 302 301 300 299 298 297 296 295 295 295 295 297 299 300 303 305 306 306 307 305 304 304 305 308 311 314 315
311 312 311 310 312 314 313 313 312 313 310 308 309 309 307 305 303 301 300 299 298 298 297 295 295 294 294 294 294 295 296 298 299 301 303 304 303 303 303 301 302 303 307 309
310 310 311 312 313 313 314 312 312 312 310 311 309 315 307 307 304 302 300 298 297 296 296 296 295 294 294 293 294 295 295 295 296 297 297 297 295 294 295 295 297 299 301 302
315 312 311 313 312 310 313 310 310 310 309 310 310 310 308 306 306 303 300 299 297 296 295 294 294 293 293 292 292 292 293 293 293 294 294 294 293 293 292 292 293 294 296 298
311 308 309 310 309 309 308 310 310 308 308 312 310 311 312 308 308 303 301 298 296 295 293 293 294 293 292 292 290 289 289 289 290 290 289 289 289 288 287 286 286 286 287 288
311 310 309 309 310 309 308 311 316 314 313 317 312 311 313 307 305 303 299 296 294 293 292 292 292 292 292 291 290 289 288 287 288 288 287 287 287 286 285 285 285 285 285 285
316 318 309 308 310 313 308 311 312 309 315 315 311 314 311 302 300 298 296 294 293 292 292 292 292 292 291 290 290 289 288 287 287 287 287 286 286 286 286 285 285 285 285 284
316 318 309 309 309 311 312 313 311 311 302 308 313 310 306 300 298 296 295 294 293 292 291 292 292 291 291 290 289 289 288 287 287 287 286 286 286 286 285 285 285 285 285 285
315 318 312 310 309 307 310 308 313 309 306 311 312 313 312 303 299 297 296 294 292 292 291 291 291 290 290 290 289 288 288 287 287 287 287 286 286 286 286 286 286 286 285 285
312 314 313 311 311 311 308 310 309 309 306 309 308 310 308 306 300 298 297 295 293 291 291 291 290 290 290 289 289 288 288 287 287 287 287 287 287 287 286 286 286 286 285 285
312 309 307 312 309 309 310 309 308 308 307 312 311 311 302 304 300 299 298 296 293 290 289 288 289 290 289 289 288 288 288 287 287 287 287 287 287 286 286 286 285 285 285 284
312 308 302 306 306 308 311 310 310 309 307 305 307 307 300 300 299 298 297 295 293 289 287 287 288 288 288 289 288 288 288 288 287 287 287 287 287 286 286 286 285 284 283 283
310 307 307 312 304 307 308 308 308 307 302 310 307 308 302 300 299 298 296 293 291 289 287 286 286 287 288 288 288 288 288 288 288 287 287 286 286 286 285 284 283 283 282 282
308 307 304 305 306 306 305 305 305 305 304 302 302 303 302 300 297 295 294 289 287 287 286 285 286 287 288 289 288 288 288 288 287 286 286 286 285 284 284 283 281 281 281 281
301 299 299 295 301 303 303 302 302 303 303 301 302 301 298 293 291 291 290 288 287 287 287 287 286 287 287 287 287 287 287 286 285 285 284 284 283 282 280 279 279 279 279 279
301 297 293 296 294 293 293 294 297 297 297 297 296 297 292 292 289 288 287 287 287 287 286 286 286 287 287 286 287 286 285 284 284 283 282 280 278 277 277 277 276 275 275 274
299 294 293 289 284 290 294 291 293 294 295 292 291 287 288 290 289 287 286 286 287 287 286 286 287 286 286 286 285 284 283 281 279 277 276 275 276 275 273 272 272 271 271 271
297 297 294 292 283 289 294 291 291 291 290 287 289 286 288 287 286 287 286 285 286 285 287 287 286 285 284 283 282 280 278 276 275 274 274 273 272 270 270 269 269 268 268 267
292 297 299 282 288 289 289 288 288 288 288 283 283 284 289 286 285 286 285 286 286 287 286 285 283 283 281 279 276 275 274 273 272 272 271 269 269 268 267 266 266 265 265 265
284 287 299 293 294 287 288 288 288 288 289 282 284 287 288 287 288 287 285 286 287 287 284 282 280 279 277 275 273 272 271 271 270 269 268 267 266 265 265 264 264 263 263 263
288 288 289 290 293 292 286 287 289 288 287 286 288 288 288 287 287 286 286 285 284 282 281 279 277 275 273 272 271 270 269 269 267 266 266 265 265 264 264 263 263 262 262 262
287 287 287 288 289 289 286 288 288 288 287 288 289 288 287 287 286 286 285 284 282 281 278 276 274 272 271 270 269 268 267 266 266 265 265 264 264 263 263 262 262 262 262 262
287 286 287 286 288 288 289 289 289 288 288 288 287 286 285 286 286 285 283 281 279 277 275 273 271 270 269 268 267 267 266 265 265 264 264 263 263 263 262 262 262 261 261 262
288 287 286 286 288 288 288 289 290 288 287 286 285 286 286 284 284 284 280 278 277 275 273 271 270 269 267 266 266 266 265 265 264 263 263 263 262 262 262 262 262 262 263 263
287 288 288 288 289 289 289 288 287 287 286 286 285 283 283 284 283 280 277 277 275 272 270 269 267 267 266 266 266 266 265 264 263 263 262 262 262 262 262 261 261 262 264 265